Location: *
(55.6049°S, 142.1985°W)
Time: 23:27:22
(UTC+00:00)

Cosmos 2297 Rocket - Pass Details

Date: 12 May 2021
Orbit: 838 x 845 km, 71.0° (Epoch: 23 June)

Event Time Altitude Azimuth Distance (km) Brightness Sun altitude
Exits shadow 13:12:48 21° 38° (NE) 1,812 4.0 -33.5°
Maximum altitude 13:15:08 28° 74° (ENE) 1,542 3.9 -33.2°
Drops below altitude 10° 13:19:56 10° 131° (SE) 2,496 5.3 -32.5°
Sets 13:22:41 0° 142° (SE) 3,437 6.1 -32.1°
